Hlavní strana
METAR-TAF:

METAR-TAF

Letiště :

Sanford-Lee County Regional Airport

Sanford, Severní Karolína, Spojené státy americké

zeměpisná šířka: 35-34-57N, zeměpisná délka: 079-06-05W, výška: 75 m

Aktuální stav počasí

Zpráva byla vytvořena před 31 minutami, v 12:55 UTC
Bezvětří
Teplota 20°C
Vlhkost vzduchu 94%
Tlak 1022 hPa
Viditelnost: 16.1 km
Oblačno až skoro zataženo ve výšce 1100 ft
Zataženo ve výšce 6000 ft

METAR: KTTA 261255Z AUTO 00000KT 10SM BKN011 OVC060 20/19 A3017 RMK AO2 T02000189

Čas: 09:26 (13:26 UTC)


TAF: chybějící

Stav a předpovědi počasí z více než 4 000 letišť (zprávy METAR a TAF).

Červené a žluté tečky na mapě představují dostupné meteorologické stanice.

Když kurzor umístíte na tečku, zobrazí se název stanice.

Pak kliknutím zobrazíte stav a předpověď počasí.

Chcete-li změnit mapu, kliknutím na zelené tlačítko se znaménkem +mapu přiblížíte, kliknutím na zelené tlačítko se znaménkem – mapu oddálíte a kliknutím na zelené šipky přejdete na sousední mapy.


METAR-TAF: